[Iaude] MPEC R89: 2016 RT17 [a=1.41,e=0.18,i=17.4,H=23.3]

mpec at mpc.eps.harvard.edu mpec at mpc.eps.harvard.edu
Thu Sep 8 23:15:17 EDT 2016


M.P.E.C. 2016-R89                                Issued 2016 Sept.  9, 03:00 UT
 
     The Minor Planet Electronic Circulars contain information on unusual
         minor planets and routine data on comets.  They are published
    on behalf of Division F of the International Astronomical Union by the
          Minor Planet Center, Smithsonian Astrophysical Observatory,
                          Cambridge, MA 02138, U.S.A.

             Prepared using the Tamkin Foundation Computer Network

                              MPC at CFA.HARVARD.EDU
            URL http://www.minorplanetcenter.net/    ISSN 1523-6714


                                   2016 RT17
 
Observations:
     K16R17T* C2016 09 04.20879 21 44 31.64 +23 45 12.1          21.0 VqER089G96
     K16R17T  C2016 09 04.21415 21 44 30.59 +23 45 36.4          20.9 VqER089G96
     K16R17T  C2016 09 04.21947 21 44 29.38 +23 46 00.7          21.1 VqER089G96
     K16R17T  C2016 09 04.22479 21 44 28.22 +23 46 24.0          20.8 VqER089G96
     K16R17T  C2016 09 04.33256 21 44 05.25 +23 54 26.0          21.6 VqER089G96
     K16R17T  C2016 09 04.33405 21 44 05.03 +23 54 32.2          20.9 VqER089G96
     K16R17T  C2016 09 04.33552 21 44 04.63 +23 54 37.9          20.2 VqER089G96
     K16R17T  C2016 09 04.33697 21 44 04.41 +23 54 45.2          20.9 VqER089G96
     K16R17T HC2016 09 04.46203 21 43 38.79 +24 03 51.4                oER089691
     K16R17T HC2016 09 04.46825 21 43 37.40 +24 04 19.6                oER089691
     K16R17T KC2016 09 06.19080421 38 11.85 +26 07 48.8          21.2 VuER089H21
     K16R17T KC2016 09 06.19961321 38 10.03 +26 08 24.9          21.1 VuER089H21
     K16R17T  C2016 09 06.21018 21 38 09.00 +26 09 14.6          21.3 VqER089G96
     K16R17T  C2016 09 06.21747 21 38 07.56 +26 09 44.8          20.5 VqER089G96
     K16R17T  C2016 09 06.22465 21 38 06.03 +26 10 14.8          20.1 VqER089G96
     K16R17T  C2016 09 06.23183 21 38 04.56 +26 10 43.8          20.3 VqER089G96
     K16R17T KC2016 09 07.11771121 35 21.13 +27 10 33.0          20.9 VuER089H21
     K16R17T KC2016 09 07.12453721 35 19.77 +27 11 00.2          21.3 VuER089H21
     K16R17T KC2016 09 07.13266321 35 18.15 +27 11 33.0          21.4 VuER089H21
     K16R17T  C2016 09 07.94113 21 32 49.95 +28 04 04.0          21.7 VSER089033
     K16R17T  C2016 09 07.94350 21 32 49.47 +28 04 13.1          21.7 VSER089033
     K16R17T  C2016 09 07.94587 21 32 49.01 +28 04 21.9          21.8 VSER089033
     K16R17T  C2016 09 07.94823 21 32 48.56 +28 04 30.8          22.4 VSER089033
     K16R17T  C2016 09 08.00845 21 32 37.03 +28 08 19.2          22.1 VSER089033
     K16R17T  C2016 09 08.01081 21 32 36.56 +28 08 28.0          22.3 VSER089033
     K16R17T  C2016 09 08.01318 21 32 36.11 +28 08 37.3          22.4 VSER089033
     K16R17T  C2016 09 08.01554 21 32 35.65 +28 08 46.0          22.8 VSER089033
     K16R17T  C2016 09 08.01792 21 32 35.21 +28 08 55.0          23.4 VSER089033
     K16R17T  C2016 09 08.02028 21 32 34.71 +28 09 03.4          23.2 VSER089033
 
Observer details:
033 Karl Schwarzschild Observatory, Tautenburg.  Observers B. Stecklum,
    C. Hoegner.  Measurer B. Stecklum.  1.34-m f/3 Schmidt + CCD.
691 Steward Observatory, Kitt Peak.  Observer T. H. Bressi.  0.9-m f/3
    reflector + CCD.
G96 Mt. Lemmon Survey.  Observers R. G. Matheny, D. C. Fuls.  Measurers
    E. J. Christensen, D. C. Fuls, A. R. Gibbs, A. D. Grauer, J. A. Johnson,
    R. A. Kowalski, S. M. Larson, G. J. Leonard, R. G. Matheny, R. L. Seaman,
    F. C. Shelly.  1.5-m reflector + 10K CCD.
H21 Astronomical Research Observatory, Westfield.  Observer R. Holmes.
    Measurers S. Foglia, L. Buzzi, T. Linder, R. Holmes.  0.76-m f/3.0
    astrograph + CCD, 0.81-m f/4.0 astrograph + CCD.
 
Orbital elements:
2016 RT17                                                Earth MOID = 0.1675 AU
Epoch 2016 July 31.0 TT = JDT 2457600.5                 MPC
M 325.52737              (2000.0)            P               Q
n   0.59118165     Peri.   37.20920     +0.98340328     -0.05751615
a   1.4060111      Node   324.88471     -0.05921846     +0.79472850
e   0.1827032      Incl.   17.40625     +0.17149681     +0.60423382
P   1.67           H   23.3           G   0.15           U   8
Residuals in seconds of arc
160904 G96  0.5-  0.7+    160906 H21  0.0   0.4+    160907 033  0.1-  0.1+
160904 G96  0.8+  0.7+    160906 H21  0.2-  0.0     160907 033  0.1-  0.1-
160904 G96  0.3-  1.0+    160906 G96  0.5-  0.7+    160907 033  0.0   0.2-
160904 G96  0.6-  0.3+    160906 G96  0.4+  0.5+    160908 033  0.3+  0.0
160904 G96  1.0-  0.7+    160906 G96  0.3-  0.6+    160908 033  0.0   0.1-
160904 G96  0.3+  0.3+    160906 G96  0.2-  0.2-    160908 033  0.0   0.3+
160904 G96  1.0-  0.5-    160907 H21  0.3+  0.3-    160908 033  0.1-  0.1+
160904 G96  0.2+  0.4+    160907 H21  0.4+  0.5-    160908 033  0.0   0.1+
160904 691  1.6+  1.7-    160907 H21  0.4+  0.4-    160908 033  0.7-  0.3-
160904 691  0.4-  0.6-    160907 033  0.2+  0.1+

Ephemeris:
2016 RT17                a,e,i = 1.41, 0.18, 17                  q = 1.1491
Date    TT    R. A. (2000) Decl.     Delta      r     Elong.  Phase     V
2016 08 10    23 01 22.3 -13 41 22   0.1955  1.1943   155.4    20.7    21.2
...
2016 08 25    22 18 52.3 +08 53 59   0.1689  1.1712   160.3    16.9    20.7
...
2016 09 02    21 51 47.6 +20 52 57   0.1755  1.1620   148.4    27.1    21.1
...
2016 09 08    21 32 40.1 +28 08 05   0.1883  1.1567   139.3    34.6    21.4
2016 09 09    21 29 43.0 +29 10 23   0.1909  1.1559   137.9    35.8    21.5
2016 09 10    21 26 51.1 +30 09 49   0.1937  1.1552   136.5    36.8    21.5
...
2016 09 16    21 11 38.9 +35 10 15   0.2123  1.1517   129.4    42.4    21.9
...
2016 09 24    20 57 17.9 +39 46 56   0.2406  1.1493   122.1    47.7    22.3
...
2016 10 09    20 49 11.5 +44 29 20   0.2972  1.1519   113.9    52.4    22.9

A. U. Tomatic                (C) Copyright 2016 MPC           M.P.E.C. 2016-R89




More information about the Iaude mailing list